Regional Weather Roundup
Issued by NWS

Home | Current Version | Previous Version | Graphics & Text | Print | Product List | Glossary Off
Versions: 1 2 3 4 5 6 7 8 9 10 11 12 13 14 15 16 17 18 19 20 21 22 23 24 25 26 27 28 29 30 31 32 33 34 35 36 37 38 39 40 41 42 43 44 45 46 47 48 49 50

000
ASUS45 KBOU 300107
RWRCO

WEATHER ROUNDUP FOR COLORADO
NATIONAL WEATHER SERVICE DENVER/BOULDER CO
700 PM MDT FRI AUG 29 2014

NOTE: "FAIR" INDICATES FEW OR NO CLOUDS BELOW 12000 FEET WITH NO
SIGNIFICANT WEATHER AND/OR OBSTRUCTIONS TO VISIBILITY.

COZ001>005-013-030-031-300200-
...NORTHWEST COLORADO...

CITY           SKY/WX    TMP DP  RH WIND       PRES   REMARKS
CRAIG          CLOUDY    70  51  51 W3        30.14S
HAYDEN         MOCLDY    68  45  42 NW3       30.17R
MEEKER         PTCLDY    68  46  45 S6        30.17R
MOUNT WERNER   NOT AVBL
STEAMBOAT SPGS MOCLDY    67  47  47 S7        30.20R
WALDEN         MOCLDY    55  45  67 SE6       30.27S
$$

COZ006>008-011-300200-
...WEST CENTRAL VALLEYS...

CITY           SKY/WX    TMP DP  RH WIND       PRES   REMARKS
GRAND JUNCTION MOCLDY    78  44  29 W6        30.05F
MONTROSE       PTCLDY    78  43  28 N5        30.14S
EAGLE          MOCLDY    70  43  37 CALM      30.21R
RIFLE          MOCLDY    74  52  46 E5        30.10S
DELTA          PTCLDY    83  39  20 W8        30.08S
NUCLA          PTCLDY    77  41  27 W3        30.16S
$$

COZ017>023-064>068-300200-
...SOUTHWEST COLORADO...

CITY           SKY/WX    TMP DP  RH WIND       PRES   REMARKS
DURANGO        CLEAR     76  37  24 W13       30.16R
CORTEZ         CLEAR     79  40  24 N5        30.12S
PAGOSA SPRINGS PTCLDY    72  29  20 W3        30.23S
TELLURIDE      PTCLDY    64  34  32 W7G16     30.34S
WOLF CREEK PAS PTCLDY    46  30  53 SW13      30.54R
$$

COZ009-010-012-014-032>034-037-058>063-300200-
...CENTRAL COLORADO...

CITY           SKY/WX    TMP DP  RH WIND       PRES   REMARKS
ASPEN          MOCLDY    64  40  41 S10       30.27R
BUENA VISTA    CLOUDY    58  42  55 E10G18    30.33R
COPPER MTN     CLOUDY    46  28  49 SW14G22   30.55F
BERTHOUD PASS  FAIR      37  37 100 W17       30.57S
COTTONWOOD PAS MOCLDY    55  36  47 S3        30.45R
GUNNISON       CLOUDY    64  43  45 N22G29    30.28R
KREMMLING      LGT RAIN  57  43  58 S12G17    30.27R
LEADVILLE      MOCLDY    53  39  59 VRB6      30.41R
MONARCH PASS   CLOUDY    45  32  61 E17       30.64S
SALIDA         CLOUDY    63  43  47 N15G24    30.37R
SUNLIGHT       MOCLDY    54  43  66 CALM      30.50S
WILKERSON PASS NOT AVBL
$$

COZ069>075-300200-
...SAN LUIS VALLEY/SANGRE DE CRISTO MOUNTAINS...

CITY           SKY/WX    TMP DP  RH WIND       PRES   REMARKS
ALAMOSA        CLEAR     70  34  26 S8        30.22R
LA VETA PASS   NOT AVBL
SAGUACHE       NOT AVBL
$$

COZ035-036-038>040-300200-
...NORTHERN COLORADO FRONT RANGE...

CITY           SKY/WX    TMP DP  RH WIND       PRES   REMARKS
DENVER INTL AP CLOUDY    67  47  48 N3        30.14R
DMNS CITY PARK   N/A     67  45  46 SW7       30.12S
AURORA         MOCLDY    66  47  50 SW5       30.16R
FRONT RANGE AP MOCLDY    68  48  49 N5        30.16
ERIE MUNI ARPT CLOUDY    66  48  51 N5        30.11S
BOULDER MUN AP CLOUDY    68  46  45 CALM      30.12R
CENTENNIAL     CLOUDY    64  45  49 SW10      30.16R
BROOMFIELD     MOCLDY    68  45  42 SW9       30.14S
FORT COLLINS   CLOUDY    64  54  68 E16       30.08F
LONGMONT       CLOUDY    68  55  63 SE6       30.13R
$$

COZ041-046-047-076>085-087-088-300200-
...PIKES PEAK/PALMER DIVIDE AND SOUTHERN FOOTHILLS...

CITY           SKY/WX    TMP DP  RH WIND       PRES   REMARKS
COLO. SPRINGS  LGT RAIN  64  46  52 CALM      30.23R
A. F. ACADEMY  CLOUDY    60  50  67 NW6       30.24R
ELLICOTT       TSTM      58  49  72 E6        30.23R
FALCON         CLOUDY    59  48  66 CALM      30.26R
FORT CARSON    CLOUDY    62  50  65 N15       30.18F
LIMON          CLOUDY    69  45  41 NW6       30.14R
MONUMENT HILL  CLOUDY    57  45  62 W10       30.26S
TRINIDAD       PTCLDY    78  34  20 SE10      30.11R
$$

COZ042>045-048>051-090-091-300200-
...NORTHEAST COLORADO...

CITY           SKY/WX    TMP DP  RH WIND       PRES   REMARKS
GREELEY ARPT   CLOUDY    63  52  67 NW18G24   30.14R
AKRON          MOCLDY    71  54  54 NW6       30.06R
BURLINGTON     PTCLDY    76  50  40 NE6       30.02R
WRAY             N/A     76  55  49 N7        29.98R
STERLING       MOCLDY    77  61  57 CALM      30.01R
HOLYOKE        PTCLDY    77  55  47 N10       29.99R
FORT MORGAN    MOCLDY    65  46  50 W14       30.08S
$$

COZ086-089-092>099-300200-
...SOUTHEAST COLORADO...

CITY           SKY/WX    TMP DP  RH WIND       PRES   REMARKS
PUEBLO         CLOUDY    70  48  45 N25G40    30.08R
LA JUNTA       PTCLDY    80  46  30 E9        30.00R
LAMAR          CLEAR     80  51  36 E6        29.96R
SPRINGFIELD      N/A     78  44  29 NE8       30.02R
$$



USA.gov is the U.S. government's official web portal to all federal, state and local government web resources and services.